Torna al catalogo

USA 11

AttivoMilitareGEO
NORAD 16116·PAYLOAD·🇺🇸 United States

Lanciato Oct 3, 1985 da Cape Canaveral Space Force Station

Loading…

TLE

AggiornatoSource: Space-Track

Epoca: Sep 14, 2026, 12:35 UTC

1 16116U 85092B   26257.52473596 -.00000117  00000-0  00000-0 0  9992
2 16116  14.3310 346.7713 0003441 225.5538 154.8721  0.99329055 26819

Traccia USA 11 in tempo reale con AllMySat

Download on the App Store